Weather History for Midland, MI

Change the Weather History Date:

Sunday, February 2, 2014

  Actual Average (KMBS) Record (KMBS)
Temperature  
Mean Temperature 13 °F 22 °F  
Max Temperature 26 °F 29 °F 41 °F (2006)
Min Temperature 0 °F 15 °F 3 °F (2000)
Degree Days  
Heating Degree Days 52    
Month to date heating degree days  
Since 1 July heating degree days  
Cooling Degree Days 0    
Month to date cooling degree days  
Year to date cooling degree days  
Moisture  
Dew Point 13 °F    
Average Humidity 82    
Maximum Humidity 96    
Minimum Humidity 59    
Precipitation  
Precipitation 0.00 in 0.05 in 0.11 in (2011)
Month to date precipitation 0.09  
Year to date precipitation 1.80  
Snow  
Snow 0.00 in - - ()
Month to date snowfall  
Since 1 July snowfall  
Snow Depth -    
Sea Level Pressure  
Sea Level Pressure 30.13 in    
Wind  
Wind Speed 3 mph (WNW)    
Max Wind Speed 12 mph    
Max Gust Speed 16 mph    
Visibility 9 miles    
Events Snow    
T = Trace of Precipitation, MM = Missing Value Source: NWS Daily Summary

Daily Weather History Graph

Daily Weather History Graph

Search for Another Location

Airport:

Trip Planner

Search our weather history database for the weather conditions in past years. The results will help you decide how hot, cold, wet, or windy it might be!

Date:

Astronomy

Feb. 02, 2014 Rise Set
Actual Time 7:52 AM EST 5:49 PM EST
Civil Twilight 7:22 AM EST 6:20 PM EST
Nautical Twilight 6:47 AM EST 6:54 PM EST
Astronomical Twilight 6:14 AM EST 7:27 PM EST
Moon 9:10 AM EST (2/2) 9:41 PM EST (2/2)
Length of Visible Light 10h 57m
Length of Day
9h 57m
Waxing Crescent, 11% of the Moon is Illuminated
Feb 2
Waxing Crescent
Feb 6
First Quarter
Feb 14
Full
Feb 22
Last Quarter
Mar 1
New

Hourly Weather History & Observations

Time (EST) Temp. Windchill Dew Point Humidity Pressure Visibility Wind Dir Wind Speed Gust Speed Precip Events Conditions
12:13 AM 20.3 °F 15.4 °F 19.4 °F 96% 29.99 in 10.0 mi WNW 3.5 mph - N/A   Scattered Clouds
12:34 AM 19.8 °F - 18.7 °F 96% 29.99 in 10.0 mi Calm Calm - N/A   Clear
12:54 AM 18.3 °F - 17.4 °F 96% 29.98 in 10.0 mi Calm Calm - N/A   Clear
1:13 AM 15.8 °F 10.2 °F 14.4 °F 94% 29.98 in 10.0 mi WNW 3.5 mph - N/A   Clear
1:34 AM 19.0 °F 11.1 °F 18.0 °F 96% 30.00 in 10.0 mi WNW 5.8 mph - N/A   Clear
1:54 AM 19.4 °F 11.5 °F 18.3 °F 96% 30.02 in 10.0 mi WNW 5.8 mph - N/A   Clear
2:14 AM 18.7 °F 9.5 °F 17.4 °F 95% 30.02 in 10.0 mi NW 6.9 mph - N/A   Scattered Clouds
2:34 AM 18.7 °F 11.9 °F 17.4 °F 95% 30.02 in 10.0 mi NW 4.6 mph - N/A   Mostly Cloudy
2:54 AM 18.7 °F 13.5 °F 17.4 °F 95% 30.03 in 10.0 mi West 3.5 mph - N/A   Overcast
3:14 AM 19.2 °F - 17.8 °F 94% 30.02 in 10.0 mi Calm Calm - N/A   Overcast
3:34 AM 18.5 °F - 17.1 °F 94% 30.02 in 10.0 mi Calm Calm - N/A   Overcast
3:54 AM 18.7 °F - 17.2 °F 94% 30.04 in 10.0 mi Calm Calm - N/A   Overcast
4:14 AM 18.7 °F - 17.2 °F 94% 30.04 in 10.0 mi Calm Calm - N/A   Overcast
4:34 AM 19.4 °F - 18.0 °F 94% 30.04 in 10.0 mi Calm Calm - N/A   Overcast
4:54 AM 19.4 °F - 17.6 °F 93% 30.04 in 10.0 mi Calm Calm - N/A   Overcast
5:14 AM 19.4 °F - 17.6 °F 93% 30.05 in 10.0 mi Calm Calm - N/A   Overcast
5:34 AM 19.4 °F - 17.6 °F 93% 30.05 in 10.0 mi Calm Calm - N/A   Overcast
5:54 AM 19.4 °F - 18.0 °F 94% 30.05 in 10.0 mi Calm Calm - N/A   Overcast
6:14 AM 19.9 °F - 18.3 °F 93% 30.05 in 10.0 mi Calm Calm - N/A   Overcast
6:34 AM 19.8 °F - 18.1 °F 93% 30.05 in 10.0 mi Calm Calm - N/A   Overcast
6:54 AM 19.6 °F - 18.3 °F 95% 30.05 in 10.0 mi Calm Calm - N/A   Overcast
7:14 AM 19.4 °F - 18.0 °F 94% 30.05 in 10.0 mi Calm Calm - N/A   Overcast
7:34 AM 19.4 °F - 18.0 °F 94% 30.06 in 10.0 mi Calm Calm - N/A   Overcast
7:54 AM 17.8 °F - 16.5 °F 95% 30.06 in 10.0 mi Calm Calm - N/A   Overcast
8:14 AM 18.0 °F - 16.9 °F 96% 30.08 in 10.0 mi Calm Calm - N/A   Overcast
8:34 AM 18.3 °F 13.1 °F 17.2 °F 96% 30.09 in 10.0 mi NNW 3.5 mph - N/A   Overcast
8:53 AM 19.2 °F 14.1 °F 17.8 °F 94% 30.10 in 10.0 mi WNW 3.5 mph - N/A   Overcast
9:14 AM 20.8 °F - 18.9 °F 92% 30.11 in 10.0 mi Calm Calm - N/A   Overcast
9:34 AM 21.2 °F 14.9 °F 17.8 °F 87% 30.11 in 10.0 mi NW 4.6 mph - N/A   Overcast
9:54 AM 21.2 °F 16.4 °F 16.7 °F 83% 30.12 in 7.0 mi WNW 3.5 mph - N/A Snow Light Snow
10:14 AM 21.2 °F 16.4 °F 16.2 °F 81% 30.12 in 5.0 mi NW 3.5 mph - N/A Snow Light Snow
10:34 AM 21.7 °F - 16.7 °F 81% 30.13 in 5.0 mi Calm Calm - N/A Snow Light Snow
10:53 AM 22.1 °F 15.9 °F 17.2 °F 82% 30.13 in 3.0 mi WSW 4.6 mph - N/A Snow Light Snow
11:14 AM 23.0 °F 15.8 °F 17.8 °F 80% 30.14 in 4.0 mi West 5.8 mph - N/A Snow Light Snow
11:34 AM 23.0 °F 17.0 °F 16.3 °F 76% 30.14 in 7.0 mi West 4.6 mph - N/A Snow Light Snow
11:53 AM 23.5 °F 12.4 °F 15.3 °F 71% 30.14 in 10.0 mi West 11.5 mph - N/A   Overcast
12:14 PM 24.1 °F 19.7 °F 14.7 °F 68% 30.14 in 10.0 mi West 3.5 mph - N/A   Overcast
12:34 PM 23.9 °F 13.5 °F 13.3 °F 64% 30.15 in 10.0 mi WNW 10.4 mph - N/A   Overcast
12:54 PM 26.2 °F 17.1 °F 14.0 °F 60% 30.14 in 10.0 mi WSW 9.2 mph 16.1 mph N/A   Overcast
1:14 PM 24.8 °F 17.9 °F 13.3 °F 62% 30.15 in 10.0 mi West 5.8 mph - N/A   Overcast
1:34 PM 24.8 °F 14.0 °F 13.1 °F 61% 30.14 in 10.0 mi West 11.5 mph 16.1 mph N/A   Overcast
1:54 PM 24.8 °F 14.6 °F 12.9 °F 61% 30.14 in 10.0 mi West 10.4 mph - N/A   Overcast
2:14 PM 25.0 °F 14.2 °F 13.1 °F 61% 30.13 in 10.0 mi West 11.5 mph - N/A   Overcast
2:34 PM 24.8 °F 16.9 °F 13.6 °F 63% 30.14 in 10.0 mi WNW 6.9 mph - N/A   Overcast
2:54 PM 24.8 °F 14.6 °F 13.6 °F 63% 30.14 in 10.0 mi WNW 10.4 mph - N/A   Overcast
3:14 PM 24.8 °F 15.3 °F 13.6 °F 63% 30.14 in 10.0 mi WNW 9.2 mph - N/A   Overcast
3:34 PM 24.4 °F 14.9 °F 13.5 °F 63% 30.15 in 10.0 mi WNW 9.2 mph - N/A   Overcast
3:54 PM 24.1 °F 13.7 °F 12.4 °F 61% 30.16 in 10.0 mi NW 10.4 mph - N/A   Overcast
4:14 PM 23.4 °F 13.5 °F 12.0 °F 62% 30.18 in 10.0 mi West 9.2 mph - N/A   Overcast
4:34 PM 23.0 °F 14.7 °F 11.3 °F 61% 30.18 in 10.0 mi WNW 6.9 mph - N/A   Mostly Cloudy
4:54 PM 22.8 °F 18.2 °F 10.6 °F 59% 30.19 in 10.0 mi West 3.5 mph - N/A   Clear
5:14 PM 21.9 °F 17.2 °F 10.2 °F 61% 30.20 in 10.0 mi WNW 3.5 mph - N/A   Clear
5:34 PM 21.7 °F 15.5 °F 9.7 °F 60% 30.21 in 10.0 mi West 4.6 mph - N/A   Clear
5:54 PM 20.5 °F 15.6 °F 9.1 °F 62% 30.20 in 10.0 mi WNW 3.5 mph - N/A   Clear
6:14 PM 20.3 °F - 9.3 °F 63% 30.22 in 10.0 mi Calm Calm - N/A   Clear
6:34 PM 16.3 °F - 9.0 °F 73% 30.23 in 10.0 mi Calm Calm - N/A   Clear
6:54 PM 14.0 °F - 8.4 °F 78% 30.23 in 10.0 mi Calm Calm - N/A   Clear
7:14 PM 13.3 °F - 9.1 °F 84% 30.23 in 10.0 mi Calm Calm - N/A   Clear
7:34 PM 10.9 °F - 7.2 °F 85% 30.23 in 10.0 mi Calm Calm - N/A   Clear
7:54 PM 10.0 °F - 7.2 °F 88% 30.23 in 10.0 mi Calm Calm - N/A   Clear
8:14 PM 9.7 °F - 6.8 °F 88% 30.23 in 10.0 mi Calm Calm - N/A   Clear
8:34 PM 9.5 °F - 7.3 °F 91% 30.23 in 10.0 mi Calm Calm - N/A   Clear
8:54 PM 7.2 °F - 4.6 °F 89% 30.23 in 10.0 mi Calm Calm - N/A   Clear
9:14 PM 5.7 °F - 2.8 °F 88% 30.24 in 5.0 mi Calm Calm - N/A   Clear
9:34 PM 2.5 °F - -2.0 °F 81% 30.25 in 10.0 mi Calm Calm - N/A   Clear
9:54 PM 2.7 °F - -0.6 °F 86% 30.25 in 2.0 mi Calm Calm - N/A   Clear
10:14 PM 2.3 °F - -1.7 °F 84% 30.24 in 10.0 mi Calm Calm - N/A   Clear
10:34 PM 0.1 °F - -4.4 °F 81% 30.25 in 10.0 mi Calm Calm - N/A   Clear
10:54 PM 1.2 °F - -2.9 °F 83% 30.24 in 10.0 mi Calm Calm - N/A   Clear
11:14 PM -0.9 °F - -4.4 °F 85% 30.27 in 10.0 mi Calm Calm - N/A   Clear
11:34 PM 1.0 °F - -2.4 °F 86% 30.25 in 10.0 mi Calm Calm - N/A   Clear
11:54 PM -0.6 °F - -4.4 °F 84% 30.25 in 10.0 mi Calm Calm - N/A   Clear